Leominster, MA

4:25 AM EST on February 23, 2017 (GMT -0500)
Fitchburg Municipal

Weather History for KFIT - December, 2012

Change the Weather History Date:

Sunday, December 16, 2012

  Actual Average (KORH) Record (KORH)
Temperature  
Mean Temperature 28 °F -  
Max Temperature 30 °F 35 °F 58 °F (1971)
Min Temperature 26 °F 22 °F -2 °F (1932)
Degree Days  
Heating Degree Days 37    
Moisture  
Dew Point 22 °F    
Average Humidity 80    
Maximum Humidity 93    
Minimum Humidity 59    
Precipitation  
Precipitation 0.09 in - - ()
Sea Level Pressure  
Sea Level Pressure 30.20 in    
Wind  
Wind Speed 3 mph (NNE)    
Max Wind Speed 8 mph    
Max Gust Speed -    
Visibility 5 miles    
Events Rain , Snow    
Averages and records for this station are not official NWS values.
T = Trace of Precipitation, MM = Missing Value Source: NWS Daily Summary

Daily Weather History Graph

Daily Weather History Graph

Search for Another Location

Airport or City:

Trip Planner

Search our weather history database for the weather conditions in past years. The results will help you decide how hot, cold, wet, or windy it might be!

Date:

Astronomy

Dec. 16, 2012 Rise Set
Actual Time 7:10 AM EST 4:15 PM EST
Civil Twilight 6:38 AM EST 4:47 PM EST
Nautical Twilight 6:03 AM EST 5:22 PM EST
Astronomical Twilight 5:28 AM EST 5:56 PM EST
Moon 9:38 AM EST (12/16) 8:30 PM EST (12/16)
Length of Visible Light 10h 08m
Length of Day
9h 04m
Waxing Crescent, 16% of the Moon is Illuminated
Dec 16
Waxing Crescent
Dec 20
First Quarter
Dec 28
Full
Jan 4
Last Quarter
Jan 11
New

Hourly Weather History & Observations

Time (EST) Temp. Windchill Dew Point Humidity Pressure Visibility Wind Dir Wind Speed Gust Speed Precip Events Conditions
12:52 AM 30.0 °F - 19.9 °F 66% 30.33 in 10.0 mi Calm Calm - N/A   Overcast
1:52 AM 28.9 °F - 18.0 °F 64% 30.33 in 10.0 mi Calm Calm - N/A   Overcast
2:52 AM 28.9 °F - 18.0 °F 64% 30.33 in 10.0 mi Calm Calm - N/A   Overcast
3:24 AM 28.4 °F - 17.6 °F 64% 30.30 in 10.0 mi Calm Calm - N/A   Overcast
3:52 AM 28.9 °F 25.2 °F 17.1 °F 61% 30.31 in 10.0 mi ENE 3.5 mph - N/A   Overcast
4:52 AM 28.0 °F 21.7 °F 16.0 °F 61% 30.31 in 10.0 mi NNE 5.8 mph - N/A   Overcast
6:52 AM 27.0 °F 21.6 °F 15.1 °F 61% 30.31 in 10.0 mi NE 4.6 mph - N/A   Overcast
7:52 AM 27.0 °F 23.0 °F 15.1 °F 61% 30.31 in 10.0 mi ENE 3.5 mph - N/A   Overcast
8:52 AM 27.0 °F 21.6 °F 15.1 °F 61% 30.32 in 10.0 mi NNE 4.6 mph - N/A   Overcast
9:52 AM 27.0 °F - 16.0 °F 63% 30.31 in 10.0 mi Calm Calm - N/A   Overcast
10:45 AM 28.4 °F - 15.8 °F 59% 30.28 in 10.0 mi Calm Calm - N/A   Overcast
10:52 AM 28.0 °F 21.7 °F 16.0 °F 61% 30.29 in 10.0 mi NNE 5.8 mph - N/A   Overcast
11:52 AM 27.0 °F 23.0 °F 17.1 °F 66% 30.27 in 8.0 mi Variable 3.5 mph - 0.00 in Snow Light Snow
12:08 PM 26.6 °F 21.2 °F 17.6 °F 69% 30.24 in 2.0 mi NE 4.6 mph - 0.00 in Snow Light Snow
12:15 PM 26.6 °F 22.6 °F 19.4 °F 74% 30.24 in 1.2 mi NE 3.5 mph - 0.00 in Snow Light Snow
12:34 PM 26.6 °F 21.2 °F 19.4 °F 74% 30.23 in 0.8 mi NNE 4.6 mph - 0.01 in Snow Light Snow
12:43 PM 26.6 °F 20.0 °F 21.2 °F 80% 30.23 in 1.2 mi NE 5.8 mph - 0.01 in Snow Light Snow
12:52 PM 26.1 °F 20.5 °F 21.0 °F 81% 30.24 in 2.5 mi NE 4.6 mph - 0.01 in Snow Light Snow
1:06 PM 26.6 °F 20.0 °F 21.2 °F 80% 30.21 in 1.5 mi NNE 5.8 mph - 0.00 in Snow Light Snow
1:30 PM 26.6 °F 20.0 °F 21.2 °F 80% 30.20 in 3.0 mi NNE 5.8 mph - 0.00 in Snow Light Snow
1:52 PM 26.1 °F 21.9 °F 21.0 °F 81% 30.21 in 5.0 mi NE 3.5 mph - 0.00 in   Overcast
2:22 PM 26.6 °F 22.6 °F 21.2 °F 80% 30.20 in 4.0 mi Variable 3.5 mph - 0.00 in   Overcast
2:30 PM 26.6 °F - 23.0 °F 86% 30.20 in 2.5 mi Calm Calm - 0.01 in   Overcast
2:38 PM 26.6 °F 21.2 °F 21.2 °F 80% 30.20 in 2.5 mi North 4.6 mph - 0.01 in Rain Light Freezing Rain
2:52 PM 26.1 °F 20.5 °F 21.9 °F 84% 30.20 in 2.5 mi North 4.6 mph - 0.01 in Rain Light Freezing Rain
3:08 PM 26.6 °F - 23.0 °F 86% 30.18 in 2.0 mi Calm Calm - 0.00 in   Overcast
3:16 PM 26.6 °F - 23.0 °F 86% 30.19 in 2.5 mi Calm Calm - 0.00 in   Overcast
3:52 PM 26.1 °F - 23.0 °F 88% 30.20 in 2.5 mi Calm Calm - 0.00 in   Overcast
4:02 PM 26.6 °F - 23.0 °F 86% 30.17 in 4.0 mi Calm Calm - 0.01 in   Overcast
4:52 PM 26.1 °F - 21.9 °F 84% 30.18 in 4.0 mi Calm Calm - 0.01 in   Overcast
5:37 PM 26.6 °F - 24.8 °F 93% 30.16 in 3.0 mi Calm Calm - 0.00 in Rain Light Freezing Rain
5:44 PM 26.6 °F - 24.8 °F 93% 30.16 in 2.5 mi Calm Calm - 0.00 in Rain Light Freezing Rain
5:52 PM 26.1 °F 21.9 °F 24.1 °F 92% 30.18 in 3.0 mi Variable 3.5 mph - 0.00 in Rain Light Freezing Rain
6:00 PM 26.6 °F 21.2 °F 23.0 °F 86% 30.16 in 3.0 mi North 4.6 mph - 0.00 in Rain Light Freezing Rain
6:52 PM 26.1 °F 21.9 °F 23.0 °F 88% 30.17 in 4.0 mi NE 3.5 mph - 0.01 in Rain Light Freezing Rain
7:05 PM 26.6 °F 21.2 °F 24.8 °F 93% 30.14 in 5.0 mi NNE 4.6 mph - 0.00 in   Overcast
7:52 PM 27.0 °F - 24.1 °F 89% 30.15 in 4.0 mi Calm Calm - 0.00 in   Overcast
8:23 PM 26.6 °F - 24.8 °F 93% 30.12 in 4.0 mi Calm Calm - 0.00 in Rain Light Freezing Rain
8:52 PM 27.0 °F 21.6 °F 24.1 °F 89% 30.13 in 4.0 mi NNE 4.6 mph - 0.00 in   Overcast
9:44 PM 28.4 °F 24.6 °F 26.6 °F 93% 30.12 in 3.0 mi NNE 3.5 mph - 0.02 in Rain Light Freezing Rain
9:52 PM 28.0 °F 22.8 °F 25.0 °F 88% 30.14 in 4.0 mi North 4.6 mph - 0.02 in Rain Light Freezing Rain
10:15 PM 28.4 °F 21.2 °F 26.6 °F 93% 30.12 in 2.5 mi NNE 6.9 mph - 0.01 in Snow Light Snow
10:22 PM 28.4 °F 20.4 °F 24.8 °F 86% 30.12 in 1.8 mi NNE 8.1 mph - 0.02 in Snow Light Snow
10:29 PM 28.4 °F 22.2 °F 24.8 °F 86% 30.12 in 2.0 mi NNE 5.8 mph - 0.02 in Snow Light Snow
10:47 PM 28.4 °F 23.3 °F 24.8 °F 86% 30.11 in 1.5 mi NNE 4.6 mph - 0.02 in Snow Light Snow
10:52 PM 28.0 °F 20.8 °F 25.0 °F 88% 30.13 in 1.8 mi NNE 6.9 mph - 0.03 in Snow Light Snow
10:59 PM 28.4 °F 23.3 °F 24.8 °F 86% 30.11 in 2.5 mi NNE 4.6 mph - 0.00 in Snow Light Snow
11:05 PM 28.4 °F 22.2 °F 24.8 °F 86% 30.11 in 3.0 mi NE 5.8 mph - 0.00 in   Overcast
11:22 PM 28.4 °F 20.4 °F 24.8 °F 86% 30.11 in 4.0 mi NNE 8.1 mph - 0.00 in Rain Light Freezing Rain
11:29 PM 28.4 °F 22.2 °F 24.8 °F 86% 30.10 in 4.0 mi NNE 5.8 mph - 0.00 in Rain Light Freezing Rain
11:52 PM 28.0 °F 22.8 °F 25.0 °F 88% 30.11 in 4.0 mi NNE 4.6 mph - 0.00 in Rain Light Freezing Rain